Location: Serdyukovka
(49.0484°N, 31.8413°E)
Time: 04:30:52
(UTC+00:00)

Daily predictions for brighter satellites

Satellite Brightness Start Highest point End
(mag) Time Altitude Azimuth Time Altitude Azimuth Time Altitude Azimuth
CENTAUR R/B 4.2 00:43:14 37° NE 00:43:14 37° NE 00:50:23 10° E
ATLAS 5 CENTAUR R/B 4.5 01:08:56 31° E 01:08:56 31° E 01:11:15 10° ENE
Lacrosse 4 Rocket 4.4 01:36:00 13° NE 01:36:00 13° NE 01:37:21 10° ENE
Cosmos 2227 Rocket 3.6 01:45:01 30° NNE 01:45:01 30° NNE 01:47:48 10° NNE
ATLAS 3B R/B 4.0 01:56:21 27° N 01:58:13 31° NNE 02:04:21 10° E
SL-16 R/B 3.9 02:04:00 22° SSE 02:04:00 22° SSE 02:05:55 10° SSE
NOSS 3-2 (C) 4.1 02:11:16 45° NNW 02:13:49 72° NE 02:22:14 10° SE
USA 305 4.3 02:16:01 37° ENE 02:16:01 37° ENE 02:18:43 10° ENE
Cosmos 2297 Rocket 3.4 02:19:27 30° N 02:19:27 30° N 02:22:35 10° NNE
USA 306 3.9 02:23:48 44° ENE 02:23:48 44° ENE 02:26:49 10° ENE
ALOS 2.7 02:19:48 10° NNE 02:24:27 61° E 02:26:47 28° S
CENTAUR R/B 3.1 02:30:27 36° NW 02:34:19 86° NE 02:43:12 10° SE
Cosmos 1745 Rocket 3.9 02:29:49 10° S 02:36:06 90° NW 02:42:29 10° N
SL-08 ROCKET BODY 4.3 02:31:52 10° SSW 02:37:56 75° W 02:44:10 10° N
deb Chang Zheng 4 4.3 02:33:45 10° NNE 02:38:00 51° E 02:42:14 10° S
Cosmos 2084 3.6 02:39:14 71° NE 02:39:17 71° NE 02:43:47 10° SE
Cosmos 2263 Rocket 3.2 02:36:24 10° S 02:41:46 47° ESE 02:47:12 10° NE
ATLAS CENTAUR R/B 3.6 02:42:12 14° NNE 02:42:49 15° NNE 02:45:00 10° ENE
Cosmos 1689 Rocket 4.4 02:40:18 10° SE 02:41:48 23° ESE 02:41:48 23° ESE
NOSS 3-2 (A) 4.0 02:42:10 43° WNW 02:44:46 64° SW 02:53:06 10° SSE
Cosmos 1633 4.5 02:42:36 10° SSE 02:45:42 29° E 02:48:50 10° NNE
SAR-Lupe-4 4.1 02:42:47 10° SSE 02:45:48 55° ESE 02:45:48 55° ESE
CZ-4B R/B 4.0 02:43:00 10° NNE 02:46:24 61° ENE 02:46:24 61° ENE
SKYMED 2 3.9 02:42:33 10° SSE 02:46:51 65° ENE 02:49:11 26° N
BREEZE-M DEB (TANK) 4.3 02:50:29 21° SSE 02:50:50 22° SSE 02:53:26 10° E
Cosmos 1933 3.9 02:48:55 24° N 02:51:15 58° ENE 02:55:16 10° SSE
ARGOS Delta rocket 3.9 02:48:34 10° N 02:53:53 72° WNW 02:58:52 10° SSW
Cosmos 1603 3.6 02:52:09 34° NNW 02:54:46 90° ENE 03:00:24 10° SSE
USA 238 DEB 3.9 02:56:23 37° WNW 02:59:10 59° WSW 03:06:31 10° SSE
USA 238 3.9 02:56:27 37° WNW 02:59:16 59° WSW 03:06:37 10° SSE
ERS-2 4.4 02:56:00 10° S 02:56:42 15° S 02:56:42 15° S
Cosmos 1709 Rocket 4.1 02:55:39 10° S 03:02:01 83° E 03:08:26 10° N
SAR-Lupe-1 3.9 02:59:53 10° SSE 03:03:28 85° WSW 03:03:28 85° WSW
FENGYUN 3A 3.6 03:00:43 10° N 03:06:06 62° WNW 03:11:25 10° SSW
Cosmos 1943 3.1 03:03:16 26° NNW 03:06:37 84° WSW 03:12:20 10° SSE
SL-4 R/B 2.1 03:10:04 42° SW 03:11:09 64° SSE 03:14:51 10° ENE
Cosmos 1782 3.8 03:07:33 10° N 03:11:27 46° ENE 03:15:20 10° SSE
Cosmos 1606 3.7 03:12:58 31° SSW 03:12:58 31° SSW 03:15:14 10° SSW
Cosmos 1151 Rocket 3.0 03:08:27 11° N 03:12:30 78° E 03:16:46 10° SSE
FALCON 9 DEB 3.0 03:13:30 73° NW 03:13:37 74° NNW 03:17:06 10° ENE
Lacrosse 4 Rocket 1.8 03:12:20 28° NNW 03:14:31 64° NE 03:18:51 10° SE
Cosmos 2151 2.9 03:10:26 10° SSW 03:14:35 59° WNW 03:18:45 10° N
Cosmos 1328 Rocket 3.7 03:12:10 10° N 03:16:35 76° E 03:20:59 10° SSE
USA 307 3.1 03:16:03 46° WNW 03:16:57 57° NNW 03:21:14 10° ENE
Meteor 1-31 Rocket 2.7 03:13:56 10° N 03:17:45 56° WNW 03:21:30 10° SSW
Timation 1 Rocket 4.4 03:16:13 22° SW 03:20:03 55° NW 03:25:58 10° NNE
Cosmos 2082 4.3 03:20:04 32° WNW 03:21:08 35° NW 03:26:22 10° NNE
Okean 3 Rocket 3.5 03:17:39 10° S 03:22:02 88° W 03:26:28 10° N
Cosmos 1461 3.1 03:20:59 34° NW 03:22:59 70° SW 03:27:32 10° SSE
USA 308 3.1 03:21:56 41° WNW 03:23:05 55° NNW 03:27:20 10° ENE
Gbstr 26 Del rocket 2.7 03:23:19 44° NW 03:24:21 69° NNE 03:28:16 10° E
Cosmos 2227 4.1 03:19:00 10° SSW 03:24:38 86° WNW 03:30:19 10° NNE
Cosmos 2227 Rocket 3.4 03:26:51 22° NW 03:26:57 22° NW 03:31:18 10° N
Cosmos 923 Rocket 4.0 03:25:39 11° NNW 03:30:41 86° ENE 03:36:00 10° SSE
Cosmos 1766 Rocket 3.5 03:26:20 10° SSW 03:30:49 78° W 03:35:19 10° N
Cosmos 1184 Rocket 2.8 03:28:11 10° S 03:31:28 81° E 03:34:46 10° NNE
SJ 16-02 1.7 03:28:32 10° S 03:32:55 68° ESE 03:37:21 10° NNE
CZ-4B R/B 3.0 03:28:43 10° N 03:33:14 73° WNW 03:37:42 10° SSW
COSMO-SKYMED 1 2.9 03:30:51 10° S 03:34:58 42° W 03:37:46 19° NW
ADEOS 3.9 03:30:51 10° N 03:35:43 40° WNW 03:40:33 10° SW
Cosmos 1441 Rocket 3.4 03:33:28 10° SSW 03:37:06 43° WNW 03:40:44 10° N
ASTRO F (AKARI) 4.3 03:35:00 10° NNE 03:38:05 74° ESE 03:41:10 10° S
Cosmos 1408 Rocket 3.7 03:37:19 10° S 03:41:47 79° E 03:46:16 10° NNE
Meteor 1-26 Rocket 4.3 03:38:56 10° NNW 03:44:45 63° W 03:50:22 10° S
Cosmos 1812 4.0 03:42:28 10° N 03:46:09 41° ENE 03:49:47 10° SSE
DMSP B5D1-3 4.5 03:41:24 10° SSE 03:46:33 84° WSW 03:51:45 10° NNW
PSLV R/B 4.4 03:43:21 10° S 03:47:16 40° W 03:50:40 13° NNW
ATLAS 3B R/B 2.9 03:43:36 13° NW 03:49:56 78° NE 03:57:07 10° SE
Meteor 1-4 Rocket 2.8 03:50:47 16° NNW 03:53:15 42° W 03:56:31 10° SSW
ERBS 2.2 03:51:49 19° WSW 03:53:59 66° NNW 03:57:18 10° NE
Lacrosse 5 3.1 03:49:29 10° SSW 03:54:17 44° SE 03:59:05 10° ENE
USA 305 3.4 03:52:10 22° WNW 03:54:40 46° N 03:58:50 10° ENE
NOAA 6 4.4 03:49:41 10° NNE 03:54:48 67° ESE 03:59:53 10° S
Cosmos 2228 Rocket 3.7 03:53:32 10° N 03:57:57 60° ENE 04:02:19 10° SSE
Cosmos 1680 Rocket 3.5 03:55:16 10° NNW 04:00:36 72° WSW 04:05:53 10° SSE
ALOS 3.5 03:58:05 10° NNW 04:01:27 20° WNW 04:04:50 10° WSW
Cosmos 1844 Rocket 4.0 03:57:09 10° S 04:02:29 45° ESE 04:07:53 10° NE
Cosmos 2297 Rocket 3.9 04:01:17 13° NW 04:02:42 14° NNW 04:05:28 10° N
USA 306 3.4 03:59:57 18° WNW 04:02:49 44° N 04:06:58 10° ENE
Meteor 1-10 Rocket 4.5 03:58:44 10° N 04:04:18 73° ENE 04:09:51 10° SSE
NOSS 3-4 (A) 3.4 04:01:25 10° SW 04:07:21 80° NW 04:13:48 10° NE
NOSS 3-4 (C) 3.4 04:01:32 10° SW 04:07:29 80° NW 04:13:55 10° NE
H-2A R/B 3.0 04:07:58 10° N 04:11:45 47° WNW 04:15:29 10° SW
Meteor 2-3 Rocket 4.0 04:07:47 10° SW 04:13:15 46° WNW 04:18:48 10° N
Cosmos 1689 Rocket 4.1 04:12:52 10° WSW 04:13:46 12° W 04:13:46 12° W
SL-24 DEB 4.3 04:11:42 10° S 04:16:27 87° W 04:21:16 10° N
Cosmos 1862 3.4 04:14:06 10° S 04:18:09 83° E 04:22:14 10° N
EO 1 Delta rocket 4.3 04:13:01 10° SSW 04:18:09 44° W 04:22:41 10° NNW
USA 234 3.3 04:11:48 10° ENE 04:18:24 87° SSE 04:24:57 10° WSW
Cosmos 2112 Rocket 4.1 04:13:23 10° NNW 04:18:40 60° WSW 04:23:55 10° S
H-2A R/B 2.2 04:16:33 10° N 04:20:28 70° WNW 04:24:16 10° SSW
Cosmos 1633 3.8 04:17:52 10° WSW 04:20:33 20° WNW 04:23:16 10° NNW
CZ-4C R/B 2.6 04:15:38 10° SSW 04:20:33 65° SE 04:26:30 10° NE
YAOGAN 6 2.6 04:18:42 10° N 04:22:11 55° WNW 04:25:36 10° SSW
ATLAS CENTAUR R/B 1.4 04:18:36 10° NW 04:22:21 68° NE 04:26:13 10° SE
Nadezhda 3 Rocket 4.0 04:17:45 10° N 04:24:09 83° W 04:30:24 10° S
CENTAUR R/B 4.0 04:17:39 10° NW 04:24:36 31° WSW 04:31:59 10° S
Cosmos 1515 Rocket 4.1 04:20:52 10° NNW 04:24:59 38° W 04:29:06 10° SSW
Cosmos 2263 Rocket 2.8 04:20:39 10° WSW 04:25:51 36° NW 04:31:07 10° NNE
MOS 1 Rocket 4.0 04:22:55 10° SSW 04:27:14 36° W 04:31:49 10° NNW
DMSP B5D2-2 4.3 04:22:04 10° SSE 04:27:18 77° ENE 04:32:32 10° NNW
ATLAS 2AS CENTAUR R/B 3.1 04:19:22 10° SW 04:27:22 78° NW 04:35:14 10° NE
Geosat 4.1 04:25:16 10° SSE 04:30:16 68° WSW 04:35:18 10° NNW
NOAA 12 4.3 04:24:57 10° NNE 04:30:18 82° ESE 04:35:34 10° SSW
Okean O Rocket 1.7 04:26:55 10° NNE 04:31:22 85° ESE 04:35:49 10° SSW
CZ-4B R/B 3.3 04:26:47 10° NNE 04:32:09 83° ESE 04:37:32 10° SSW
Cosmos 2082 Rocket 4.1 04:29:40 10° N 04:34:07 23° NE 04:38:34 10° E
Cosmos 1898 Rocket 3.5 04:30:10 10° SSW 04:35:28 75° WNW 04:40:51 10° NNE
PSLV R/B 4.5 04:32:48 10° N 04:36:22 33° WNW 04:39:50 10° SW
EXPRESS MD2 4.2 04:32:46 10° W 04:36:45 89° NNE 04:45:10 10° ESE
COSMOS 2406 4.3 04:33:50 10° NNW 04:39:16 42° NE 04:44:43 10° ESE
Cosmos 1707 Rocket 4.0 04:37:02 10° N 04:41:23 65° ENE 04:45:41 10° SSE
RESURS DK-1 2.4 04:39:15 10° SSW 04:43:24 88° WNW 04:47:36 10° NNE
Envisat 3.3 04:38:47 10° N 04:43:38 46° WNW 04:48:28 10° SW
Cosmos 2154 Rocket 4.0 04:41:08 10° SSW 04:47:18 66° WNW 04:53:33 10° N
CZ-2C R/B 2.8 04:41:52 10° S 04:47:20 61° W 04:52:44 10° NNW
